When you browse on this site, cookies collect data to enhance your experience and personalize the content and advertising you see.
Visit our Privacy Policy to learn more. By continuing to use the site, you agree to this use of cookies and data.
  • In Österreich
  • Länderverzeichnis
  • Für 7 Tage
  • Wassertemperatur
  • Satellitenkarten
  • Wetterkarte
  • News
  • Widgets
  • user-avatar
    Anmelden

    Stündliche Wetter Elbasan

    Heute, 17 Februar, Sonntag

    Zeit Temperatur Niederschläge Wind Luftdruck Luftfeuchtigkeit
    00:00 +5°C° 0 mm 2 m/S 743 mmHg 62%
    01:00 +4°C° 0 mm 2 m/S 743 mmHg 61%
    02:00 +4°C° 0 mm 2 m/S 743 mmHg 60%
    03:00 +4°C° 0 mm 2 m/S 743 mmHg 59%
    04:00 +4°C° 0 mm 2 m/S 743 mmHg 58%
    05:00 +4°C° 0 mm 2 m/S 743 mmHg 57%
    06:00 +4°C° 0 mm 2 m/S 743 mmHg 56%
    07:00 +4°C° 0 mm 2 m/S 743 mmHg 55%
    08:00 +6°C° 0 mm 2 m/S 743 mmHg 49%
    09:00 +10°C° 0 mm 1 m/S 743 mmHg 42%
    10:00 +12°C° 0 mm 1 m/S 743 mmHg 36%
    11:00 +13°C° 0 mm 1 m/S 743 mmHg 35%
    12:00 +14°C° 0 mm 1 m/S 742 mmHg 34%
    13:00 +15°C° 0 mm 1 m/S 742 mmHg 34%
    14:00 +14°C° 0 mm 1 m/S 742 mmHg 38%
    15:00 +14°C° 0 mm 1 m/S 742 mmHg 42%
    16:00 +13°C° 0 mm 1 m/S 741 mmHg 46%
    17:00 +12°C° 0 mm 1 m/S 742 mmHg 52%
    18:00 +10°C° 0 mm 1 m/S 742 mmHg 57%
    19:00 +7°C° 0 mm 0 m/S 742 mmHg 63%
    20:00 +7°C° 0 mm 0 m/S 742 mmHg 63%
    21:00 +8°C° 0 mm 1 m/S 742 mmHg 62%
    22:00 +8°C° 0 mm 1 m/S 742 mmHg 62%
    23:00 +8°C° 0 mm 1 m/S 742 mmHg 61%

    Morgen, 18 Februar, Montag

    Zeit Temperatur Niederschläge Wind Luftdruck Luftfeuchtigkeit
    00:00 +7°C° 0 mm 1 m/S 742 mmHg 61%
    01:00 +7°C° 0 mm 1 m/S 742 mmHg 60%
    02:00 +7°C° 0 mm 1 m/S 742 mmHg 60%
    03:00 +7°C° 0 mm 1 m/S 741 mmHg 59%
    04:00 +7°C° 0 mm 1 m/S 741 mmHg 59%
    05:00 +7°C° 0 mm 1 m/S 741 mmHg 59%
    06:00 +7°C° 0 mm 1 m/S 741 mmHg 58%
    07:00 +7°C° 0 mm 1 m/S 741 mmHg 58%
    08:00 +9°C° 0 mm 1 m/S 741 mmHg 53%
    09:00 +10°C° 0 mm 0 m/S 741 mmHg 48%
    10:00 +12°C° 0 mm 0 m/S 741 mmHg 43%
    11:00 +14°C° 0 mm 1 m/S 741 mmHg 42%
    12:00 +15°C° 0 mm 1 m/S 741 mmHg 42%
    13:00 +15°C° 0 mm 2 m/S 741 mmHg 42%
    14:00 +15°C° 0 mm 2 m/S 740 mmHg 46%
    15:00 +14°C° 0 mm 2 m/S 740 mmHg 50%
    16:00 +14°C° 0 mm 2 m/S 740 mmHg 53%
    17:00 +12°C° 0 mm 1 m/S 740 mmHg 60%
    18:00 +11°C° 0 mm 1 m/S 740 mmHg 67%
    19:00 +8°C° 0 mm 0 m/S 740 mmHg 74%
    20:00 +8°C° 0 mm 0 m/S 740 mmHg 75%
    21:00 +8°C° 0 mm 0 m/S 740 mmHg 75%
    22:00 +7°C° 0 mm 0 m/S 741 mmHg 75%
    23:00 +7°C° 0 mm 0 m/S 740 mmHg 75%

    übermorgen, 19 Februar, Dienstag

    Zeit Temperatur Niederschläge Wind Luftdruck Luftfeuchtigkeit
    00:00 +8°C° 0 mm 1 m/S 740 mmHg 75%
    01:00 +7°C° 0 mm 1 m/S 740 mmHg 75%
    02:00 +7°C° 0 mm 1 m/S 740 mmHg 75%
    03:00 +7°C° 0 mm 1 m/S 740 mmHg 74%
    04:00 +7°C° 0 mm 1 m/S 740 mmHg 74%
    05:00 +7°C° 0 mm 1 m/S 740 mmHg 73%
    06:00 +7°C° 0 mm 1 m/S 740 mmHg 72%
    07:00 +7°C° 0 mm 1 m/S 740 mmHg 72%
    08:00 +9°C° 0 mm 1 m/S 740 mmHg 64%
    09:00 +11°C° 0 mm 1 m/S 741 mmHg 56%
    10:00 +13°C° 0 mm 1 m/S 741 mmHg 48%
    11:00 +13°C° 0 mm 1 m/S 741 mmHg 46%
    12:00 +14°C° 0 mm 2 m/S 740 mmHg 43%
    13:00 +15°C° 0 mm 2 m/S 740 mmHg 41%
    14:00 +14°C° 0 mm 2 m/S 740 mmHg 44%
    15:00 +14°C° 0 mm 2 m/S 740 mmHg 48%
    16:00 +13°C° 0 mm 2 m/S 739 mmHg 51%
    17:00 +12°C° 0 mm 1 m/S 740 mmHg 60%
    18:00 +10°C° 0 mm 1 m/S 740 mmHg 68%
    19:00 +8°C° 0 mm 0 m/S 740 mmHg 77%
    20:00 +7°C° 0 mm 0 m/S 740 mmHg 78%
    21:00 +7°C° 0 mm 0 m/S 740 mmHg 79%
    22:00 +7°C° 0 mm 0 m/S 740 mmHg 80%
    23:00 +6°C° 0 mm 0 m/S 740 mmHg 80%

    20 Februar, Mittwoch

    Zeit Temperatur Niederschläge Wind Luftdruck Luftfeuchtigkeit
    00:00 +6°C° 0 mm 0 m/S 740 mmHg 80%
    01:00 +6°C° 0 mm 0 m/S 740 mmHg 80%
    02:00 +6°C° 0 mm 0 m/S 740 mmHg 79%
    03:00 +6°C° 0 mm 1 m/S 740 mmHg 78%
    04:00 +6°C° 0 mm 1 m/S 740 mmHg 77%
    05:00 +6°C° 0 mm 1 m/S 740 mmHg 75%
    06:00 +6°C° 0 mm 1 m/S 740 mmHg 73%
    07:00 +6°C° 0 mm 1 m/S 740 mmHg 71%
    08:00 +8°C° 0 mm 1 m/S 741 mmHg 63%
    09:00 +10°C° 0 mm 1 m/S 741 mmHg 56%
    10:00 +12°C° 0 mm 1 m/S 741 mmHg 49%
    11:00 +13°C° 0 mm 1 m/S 741 mmHg 48%
    12:00 +13°C° 0 mm 2 m/S 741 mmHg 47%
    13:00 +14°C° 0 mm 2 m/S 740 mmHg 46%
    14:00 +14°C° 0 mm 2 m/S 740 mmHg 50%
    15:00 +13°C° 0 mm 2 m/S 740 mmHg 54%
    16:00 +13°C° 0 mm 2 m/S 740 mmHg 58%
    17:00 +12°C° 0 mm 1 m/S 740 mmHg 66%
    18:00 +10°C° 0 mm 1 m/S 740 mmHg 74%
    19:00 +8°C° 0 mm 0 m/S 741 mmHg 83%
    20:00 +7°C° 0 mm 0 m/S 741 mmHg 82%
    21:00 +7°C° 0 mm 0 m/S 741 mmHg 82%
    22:00 +7°C° 0 mm 0 m/S 741 mmHg 81%
    23:00 +8°C° 0 mm 1 m/S 741 mmHg 80%

    21 Februar, Donnerstag

    Zeit Temperatur Niederschläge Wind Luftdruck Luftfeuchtigkeit
    00:00 +7°C° 0 mm 1 m/S 741 mmHg 79%
    01:00 +7°C° 0 mm 1 m/S 741 mmHg 78%
    02:00 +7°C° 0 mm 1 m/S 741 mmHg 76%
    03:00 +7°C° 0 mm 1 m/S 741 mmHg 75%
    04:00 +7°C° 0 mm 1 m/S 741 mmHg 73%
    05:00 +7°C° 0 mm 1 m/S 741 mmHg 72%
    06:00 +7°C° 0 mm 1 m/S 741 mmHg 70%
    07:00 +7°C° 0 mm 1 m/S 742 mmHg 68%
    08:00 +9°C° 0 mm 1 m/S 742 mmHg 61%
    09:00 +11°C° 0 mm 1 m/S 742 mmHg 54%
    10:00 +12°C° 0 mm 0 m/S 742 mmHg 47%
    11:00 +14°C° 0 mm 1 m/S 742 mmHg 45%
    12:00 +15°C° 0 mm 1 m/S 741 mmHg 44%
    13:00 +16°C° 0 mm 2 m/S 741 mmHg 43%
    14:00 +15°C° 0 mm 2 m/S 741 mmHg 46%
    15:00 +15°C° 0 mm 2 m/S 741 mmHg 50%
    16:00 +14°C° 0 mm 2 m/S 741 mmHg 53%
    17:00 +13°C° 0 mm 2 m/S 741 mmHg 62%
    18:00 +11°C° 0 mm 1 m/S 741 mmHg 70%
    19:00 +8°C° 0 mm 0 m/S 741 mmHg 78%
    20:00 +8°C° 0 mm 0 m/S 741 mmHg 78%
    21:00 +8°C° 0 mm 0 m/S 741 mmHg 79%
    22:00 +8°C° 0 mm 0 m/S 741 mmHg 79%
    23:00 +7°C° 0 mm 0 m/S 741 mmHg 79%

    22 Februar, Freitag

    Zeit Temperatur Niederschläge Wind Luftdruck Luftfeuchtigkeit
    00:00 +7°C° 0 mm 0 m/S 741 mmHg 79%
    01:00 +7°C° 0 mm 0 m/S 741 mmHg 79%
    02:00 +7°C° 0 mm 1 m/S 741 mmHg 78%
    03:00 +7°C° 0 mm 1 m/S 741 mmHg 78%
    04:00 +7°C° 0 mm 1 m/S 740 mmHg 78%
    05:00 +7°C° 0 mm 1 m/S 740 mmHg 77%
    06:00 +7°C° 0 mm 1 m/S 740 mmHg 76%
    07:00 +7°C° 0 mm 1 m/S 740 mmHg 75%
    08:00 +9°C° 0 mm 1 m/S 740 mmHg 68%
    09:00 +11°C° 0 mm 1 m/S 740 mmHg 62%
    10:00 +13°C° 0 mm 1 m/S 740 mmHg 55%
    11:00 +13°C° 0 mm 1 m/S 739 mmHg 53%
    12:00 +14°C° 0 mm 2 m/S 739 mmHg 51%
    13:00 +14°C° 0 mm 2 m/S 738 mmHg 49%
    14:00 +14°C° 0 mm 2 m/S 738 mmHg 52%
    15:00 +14°C° 0 mm 2 m/S 737 mmHg 55%
    16:00 +12°C° 0 mm 3 m/S 737 mmHg 58%
    17:00 +12°C° 0 mm 2 m/S 737 mmHg 66%
    18:00 +11°C° 0 mm 1 m/S 737 mmHg 74%
    19:00 +9°C° 0 mm 1 m/S 737 mmHg 82%
    20:00 +9°C° 0.1 mm 1 m/S 736 mmHg 83%
    21:00 +9°C° 0.1 mm 1 m/S 736 mmHg 84%
    22:00 +9°C° 0.1 mm 1 m/S 736 mmHg 85%
    23:00 +8°C° 0 mm 1 m/S 736 mmHg 84%
    Mehr zeigen